TimeAEST,TemperatureF,Dew PointF,Humidity,Sea Level PressureIn,VisibilityMPH,Wind Direction,Wind SpeedMPH,Gust SpeedMPH,PrecipitationIn,Events,Conditions,WindDirDegrees,DateUTC
12:00 AM,53,49,82,30.02,25,WSW,5.8,,,,Partly Cloudy,240,2013-08-09 14:00:00
12:00 AM,53.6,50.0,88,30.01,-9999.0,WSW,5.8,-,N/A,,Clear,240,2013-08-09 14:00:00
12:30 AM,51.8,48.2,88,30.01,-9999.0,WSW,4.6,-,N/A,,Clear,250,2013-08-09 14:30:00
1:00 AM,50,48,89,30.02,,SSW,4.6,,,,,200,2013-08-09 15:00:00
1:00 AM,50.0,48.2,94,30.01,-9999.0,SSW,4.6,-,N/A,,Clear,200,2013-08-09 15:00:00
1:30 AM,50.0,46.4,87,30.01,-9999.0,SSW,4.6,-,N/A,,Clear,210,2013-08-09 15:30:00
2:00 AM,50.0,48.2,94,29.98,-9999.0,SW,1.2,-,N/A,,Clear,230,2013-08-09 16:00:00
2:30 AM,48.2,46.4,93,29.98,-9999.0,West,3.5,-,N/A,,Clear,270,2013-08-09 16:30:00
3:00 AM,49,46,87,30.00,,SW,4.6,,,,,230,2013-08-09 17:00:00
3:00 AM,48.2,46.4,93,29.98,-9999.0,SW,4.6,-,N/A,,Clear,230,2013-08-09 17:00:00
3:30 AM,48.2,44.6,87,29.98,-9999.0,Calm,Calm,-,N/A,,Clear,0,2013-08-09 17:30:00
4:00 AM,47,45,90,29.99,,Calm,Calm,,,,,,2013-08-09 18:00:00
4:00 AM,46.4,44.6,93,29.98,-9999.0,Calm,Calm,-,N/A,,Clear,0,2013-08-09 18:00:00
4:30 AM,46.4,44.6,93,29.98,-9999.0,SSW,5.8,-,N/A,,Clear,210,2013-08-09 18:30:00
5:00 AM,46.4,44.6,93,29.98,-9999.0,SW,3.5,-,N/A,,Clear,230,2013-08-09 19:00:00
5:30 AM,46.4,42.8,87,29.98,-9999.0,WSW,3.5,-,N/A,,Clear,240,2013-08-09 19:30:00
6:00 AM,45,43,89,30.01,25,Calm,Calm,,,,Partly Cloudy,,2013-08-09 20:00:00
6:00 AM,44.6,42.8,93,30.01,-9999.0,Calm,Calm,-,N/A,,Clear,0,2013-08-09 20:00:00
6:30 AM,46.4,42.8,87,30.01,-9999.0,WSW,3.5,-,N/A,,Clear,240,2013-08-09 20:30:00
7:00 AM,48,43,77,30.02,,WSW,4.6,,,,,240,2013-08-09 21:00:00
7:00 AM,48.2,42.8,82,30.01,-9999.0,WSW,4.6,-,N/A,,Clear,240,2013-08-09 21:00:00
7:30 AM,51.8,46.4,82,30.01,-9999.0,SSW,4.6,-,N/A,,Clear,210,2013-08-09 21:30:00
8:00 AM,55.4,44.6,67,30.04,-9999.0,SSW,1.2,-,N/A,,Clear,210,2013-08-09 22:00:00
8:30 AM,60.8,46.4,59,30.04,-9999.0,NW,2.3,-,N/A,,Clear,310,2013-08-09 22:30:00
9:00 AM,62.6,41.0,45,30.04,-9999.0,West,3.5,-,N/A,,Clear,280,2013-08-09 23:00:00
9:30 AM,62.6,44.6,52,30.04,-9999.0,SW,5.8,-,N/A,,Clear,220,2013-08-09 23:30:00
10:00 AM,66,42,30,30.06,,SSW,4.6,,,,,210,2013-08-10 00:00:00
10:00 AM,66.2,42.8,43,30.04,-9999.0,SSW,4.6,-,N/A,,Clear,210,2013-08-10 00:00:00
10:30 AM,69.8,35.6,28,30.04,-9999.0,SSW,11.5,-,N/A,,Clear,200,2013-08-10 00:30:00
11:00 AM,71.6,33.8,25,30.04,-9999.0,SSW,9.2,-,N/A,,Clear,200,2013-08-10 01:00:00
11:30 AM,71.6,35.6,27,30.01,-9999.0,SW,10.4,-,N/A,,Clear,220,2013-08-10 01:30:00
12:00 PM,73,36,16,30.02,22,SSW,10.4,,,,Partly Cloudy,200,2013-08-10 02:00:00
12:00 PM,73.4,35.6,25,30.01,-9999.0,South,10.4,-,N/A,,Clear,190,2013-08-10 02:00:00
12:30 PM,73.4,39.2,29,29.98,-9999.0,South,6.9,-,N/A,,Clear,180,2013-08-10 02:30:00
1:00 PM,75,40,18,30.00,,SW,8.1,,,,,230,2013-08-10 03:00:00
1:00 PM,75.2,41.0,29,29.98,-9999.0,SW,8.1,-,N/A,,Clear,230,2013-08-10 03:00:00
1:30 PM,75.2,42.8,31,29.98,-9999.0,South,6.9,-,N/A,,Clear,170,2013-08-10 03:30:00
2:00 PM,73.4,46.4,38,29.98,-9999.0,NE,8.1,-,N/A,,Clear,50,2013-08-10 04:00:00
2:30 PM,73.4,44.6,36,29.98,-9999.0,NNE,9.2,-,N/A,,Clear,30,2013-08-10 04:30:00
3:00 PM,71,53,43,29.99,16,NNE,9.2,,,,Smoke,20,2013-08-10 05:00:00
3:00 PM,71.6,53.6,53,29.98,-9999.0,NNE,9.2,-,N/A,,Clear,20,2013-08-10 05:00:00
3:30 PM,71.6,46.4,41,29.98,-9999.0,NE,6.9,-,N/A,,Clear,50,2013-08-10 05:30:00
4:00 PM,71,46,30,29.99,,ENE,6.9,,,,,60,2013-08-10 06:00:00
4:00 PM,71.6,46.4,41,29.98,-9999.0,ENE,6.9,-,N/A,,Clear,60,2013-08-10 06:00:00
4:30 PM,71.6,44.6,38,29.98,-9999.0,NE,5.8,-,N/A,,Clear,50,2013-08-10 06:30:00
5:00 PM,68.0,51.8,56,29.98,-9999.0,NE,5.8,-,N/A,,Clear,50,2013-08-10 07:00:00
5:30 PM,62.6,50.0,63,30.01,-9999.0,NE,4.6,-,N/A,,Clear,40,2013-08-10 07:30:00
6:00 PM,61,49,56,30.02,19,North,4.6,,,,Smoke,350,2013-08-10 08:00:00
6:00 PM,60.8,50.0,68,30.01,-9999.0,North,4.6,-,N/A,,Clear,350,2013-08-10 08:00:00
6:30 PM,62.6,51.8,68,30.01,-9999.0,North,4.6,-,N/A,,Clear,10,2013-08-10 08:30:00
7:00 PM,61,53,66,30.04,,NNW,3.5,,,,,330,2013-08-10 09:00:00
7:00 PM,60.8,51.8,72,30.04,-9999.0,NNW,3.5,-,N/A,,Clear,330,2013-08-10 09:00:00
7:30 PM,60.8,53.6,77,30.04,-9999.0,NNW,3.5,-,N/A,,Clear,330,2013-08-10 09:30:00
8:00 PM,59.0,51.8,77,30.04,-9999.0,NNW,1.2,-,N/A,,Clear,330,2013-08-10 10:00:00
8:30 PM,60.8,50.0,68,30.06,-9999.0,WNW,5.8,-,N/A,,Clear,300,2013-08-10 10:30:00
9:00 PM,59,50,63,30.07,22,NW,4.6,,,,Partly Cloudy,310,2013-08-10 11:00:00
9:00 PM,59.0,50.0,72,30.06,-9999.0,NW,4.6,-,N/A,,Clear,310,2013-08-10 11:00:00
9:30 PM,57.2,48.2,72,30.06,-9999.0,NW,3.5,-,N/A,,Clear,320,2013-08-10 11:30:00
10:00 PM,58,47,59,30.07,,West,3.5,,,,,280,2013-08-10 12:00:00
10:00 PM,57.2,48.2,72,30.06,-9999.0,West,3.5,-,N/A,,Clear,280,2013-08-10 12:00:00
10:30 PM,57.2,48.2,72,30.06,-9999.0,WNW,4.6,-,N/A,,Clear,290,2013-08-10 12:30:00
11:00 PM,57.2,46.4,67,30.06,-9999.0,West,5.8,-,N/A,,Clear,260,2013-08-10 13:00:00
11:30 PM,55.4,46.4,72,30.06,-9999.0,West,4.6,-,N/A,,Clear,270,2013-08-10 13:30:00